SCP
0 0 0 0 0 0 0 0 0 0 0 0 0 0 0 0 0 0 0 0 0 0 0 0 0 0 0 0 0 0 0 0 0 0 0 0 0 0 0 0 0 0 0
0 0 0 0 0 0 0 0 0 0 0 0 0 0 0 0 0 0 0 0 0 0 0 0 0 0 0 0 0 0 0 0 0 0 0 0 0 0 0 0 0 0 0
0 0 0 0 0 0 0 0 0 0 0 0 0 0 0 0 0 0 0 0 0 0 0 0 0 0 0 0 0 0 0 0 0 0 0 0 0 0 0 0 0 0 0
0 0 0 0 0 0 0 0 0 0 0 0 0 0 0 0 0 0 0 0 0 0 0 0 0 0 0 0 0 0 0 0 0 0 0 0 0 0 0 0 0 0 0
0 0 0 0 0 0 0 0 0 0 0 0 0 0 0 0 0 0 0 0 0 0 0 0 0 0 0 0 0 0 0 0 0 0 0 0 0 0 0 0 0 0 0
0 0 0 0 0 0 0 0 0 0 0 0 0 0 0 0 0 0 0 0 0 0 0 0 0 0 0 0 0 0 0 0 0 0 0 0 0 0 0 0 0 0 0
0 0 0 0 0 0 0 0 0 0 0 0 0 0 0 0 0 0 0 0 0 0 0 0 0 0 0 0 0 0 0 0 0 0 0 0 0 0 0 0 0 0 0
0 0 0 0 0 0 0 0 0 0 0 0 0 0 0 0 0 0 0 0 0 0 0 0 0 0 0 0 0 0 0 0 0 0 0 0 0 0 0 0 0 0 0
0 0 0 0 0 0 0 0 0 0 0 0 0 0 0 0 0 0 0 0 0 0 0 0 0 0 0 0 0 0 0 0 0 0 0 0 0 0 0 0 0 0 0
0 0 0 0 0 0 0 0 0 0 0 0 0 0 0 0 0 0 0 0 0 0 0 0 0 0 0 0 0 0 0 0 0 0 0 0 0 0 0 0 0 0 0
0 0 0 0 0 0 0 0 0 0 0 0 0 0 0 0 0 0 0 0 0 0 0 0 0 0 0 0 0 0 0 0 0 0 0 0 0 0 0 0 0 0 0
0 0 0 0 0 0 0 0 0 0 0 0 0 0 0 0 0 0 0 0 0 0 0 0 0 0 0 0 0 0 0 0 0 0 0 0 0 0 0 0 0 0 0
0 0 0 0 0 0 0 0 0 0 0 0 0 0 0 0 0 0 0 0 0 0 0 0 0 0 0 0 0 0 0 0 0 0 0 0 0 0 0 0 0 0 0
0 0 0 0 0 0 0 0 0 0 0 0 0 0 0 0 0 0 0 0 0 0 0 0 0 0 0 0 0 0 0 0 0 0 0 0 0 0 0 0 0 0 0
0 0 0 0 0 0 0 0 0 0 0 0 0 0 0 0 0 0 0 0 0 0 0 0 0 0 0 0 0 0 0 0 0 0 0 0 0 0 0 0 0 0 -0
0 0 0 0 0 0 0 0 0 0 0 0 0 0 0 0 0 0 0 0 0 0 0 0 0 0 0 0 0 0 0 0 0 0 0 0 0 0 -0 0 0 -0 0
0 0 0 0 0 0 0 0 0 0 0 0 0 0 0 0 0 0 0 0 0 0 0 0 0 0 0 0 0 0 0 0 0 0 0 0 0 0 0 0 -0 -0 -0
0 0 0 0 0 0 0 0 0 0 0 0 0 0 0 0 0 0 0 0 0 0 0 0 0 0 0 0 0 0 0 0 0 0 0 0 0 0 0 -0 -0 0 0
0 0 0 0 0 0 0 0 0 0 0 0 0 0 0 0 0 0 0 0 0 0 0 0 0 0 0 0 0 0 0 0 0 0 -0 0 0 0 0 -0 -0 0 0
0 0 0 0 0 0 0 0 0 0 0 0 0 0 0 0 0 0 0 0 0 0 0 0 0 0 0 0 0 0 0 0 0 0 0 -0 0 0 0 0 0 0 0
0 0 0 0 0 0 0 0 0 0 0 0 0 0 0 0 0 0 0 0 0 0 0 0 0 0 0 0 0 0 0 0 0 0 0 0 0 -0 -0 0 0 0 0
0 0 0 0 0 0 0 0 0 0 0 0 0 0 0 0 0 0 0 0 0 0 0 0 0 0 0 0 0 0 0 0 0 0 0 0 0 0 0 0 -0 -0 -0
0 0 0 0 0 0 0 0 0 0 0 0 0 0 0 0 0 0 0 0 0 0 0 0 0 0 0 0 0 0 0 0 0 0 0 0 0 0 0 0 0 0 0
0 0 0 0 0 0 0 0 0 0 0 0 0 0 0 0 0 0 0 0 0 0 0 0 0 0 0 0 0 0 0 0 0 0 0 0 0 0 0 0 0 0 0
0 0 0 0 0 0 0 0 0 0 0 0 0 0 0 0 0 0 0 0 0 0 0 0 0 0 0 0 0 0 0 0 0 0 0 0 0 0 0 0 0 0 0
0 0 0 0 0 0 0 0 0 0 0 0 0 0 0 0 0 0 0 0 0 0 0 0 0 0 0 0 0 0 0 0 0 0 0 0 0 0 0 0 0 0 0
Wind_Speed_500mb
28 33 32 33 29 25 23 23 21 25 32 41 52 59 62 65 68 69 68 65 62 60 59 59 57 56 57 56 56 58 61 65 60 65 79 87 93 98 98 89 97 117 115
40 38 37 31 27 22 23 22 22 27 37 46 51 57 64 67 69 67 61 55 55 58 59 55 53 54 55 55 54 54 59 60 52 52 53 51 69 94 103 98 96 96 115
50 45 40 33 24 24 28 21 23 31 40 47 52 57 61 64 66 63 60 56 55 55 56 57 54 54 54 57 57 54 51 57 60 52 47 26 25 42 59 85 107 100 103
52 46 42 33 31 33 25 21 25 32 39 46 51 57 63 67 65 65 64 62 60 60 56 55 52 50 52 55 56 55 55 57 63 59 63 66 67 50 24 43 69 86 112
52 46 43 35 34 35 25 22 25 32 38 44 51 56 60 63 66 66 67 66 65 61 57 55 51 54 52 55 54 53 56 53 62 65 59 69 72 69 80 74 69 44 75
46 44 40 41 41 32 24 20 26 33 38 43 49 55 59 63 66 67 68 68 67 64 57 53 50 51 56 58 59 59 57 59 58 62 65 71 58 57 62 72 72 91 62
47 46 45 47 32 30 23 21 27 32 37 43 49 54 56 57 60 64 69 70 70 66 60 54 53 55 55 57 58 59 58 61 65 66 67 72 81 71 76 65 65 69 80
47 46 42 34 37 31 22 23 29 33 37 42 47 50 50 52 55 60 65 66 65 65 59 55 54 55 54 54 55 59 61 62 68 72 73 73 79 81 71 68 68 64 63
48 46 45 47 41 31 24 24 27 31 35 40 44 46 47 50 56 60 63 63 62 61 59 57 56 56 54 51 53 56 61 63 64 75 74 72 77 81 83 96 66 54 65
42 42 44 42 38 32 25 26 27 30 34 38 40 42 45 49 54 59 61 59 56 55 53 52 52 55 54 53 54 57 59 64 65 68 74 77 76 75 70 83 92 88 60
37 35 39 37 35 31 26 26 27 28 30 33 35 38 41 46 51 57 58 55 53 50 49 48 49 50 51 51 54 56 59 62 64 71 71 75 72 76 71 64 77 90 95
28 25 31 35 33 29 27 25 25 24 25 28 30 34 38 43 48 54 58 56 52 49 47 47 48 49 51 50 53 55 56 60 64 62 63 73 63 74 73 70 72 74 67
27 21 29 37 35 30 27 25 24 21 21 24 27 30 35 40 47 53 58 58 52 50 48 48 48 50 49 49 49 53 53 56 57 53 61 65 62 67 69 68 78 52 84
31 33 35 34 31 30 28 27 23 19 18 21 22 26 31 38 44 50 55 58 55 51 46 45 45 45 46 45 46 48 48 51 45 46 54 63 61 63 59 62 52 69 60
43 34 30 32 31 31 31 28 24 19 17 19 18 22 27 33 39 46 53 55 54 52 48 47 45 44 43 43 48 47 44 38 36 38 46 50 51 55 58 52 50 60 56
34 32 30 32 34 34 32 28 26 18 16 17 15 18 22 29 36 42 48 53 53 54 53 52 50 49 46 42 36 35 28 23 24 30 33 41 45 44 42 50 53 50 55
30 32 32 30 32 35 32 28 25 17 18 16 12 14 18 24 30 36 42 47 51 54 57 59 59 55 54 52 45 36 30 28 31 36 39 40 39 41 36 38 35 45 59
34 28 25 26 31 36 35 31 25 16 21 16 11 13 16 18 25 32 37 42 47 53 56 57 59 59 59 57 53 45 34 26 24 26 26 27 30 31 36 39 41 40 44
22 17 17 22 30 34 33 32 26 19 24 18 13 12 16 16 21 27 33 37 40 45 51 53 56 58 57 56 52 45 37 32 28 20 18 18 13 11 20 31 34 33 36
15 16 18 22 29 32 34 34 27 22 25 20 18 14 19 16 17 22 26 31 33 36 39 43 49 53 57 55 53 47 40 38 36 32 28 25 18 12 2 13 26 30 26
10 16 22 25 25 31 34 36 32 28 24 27 22 18 21 18 14 15 21 25 27 28 30 34 38 42 47 49 50 50 47 45 41 40 40 38 31 16 4 10 18 20 28
19 22 25 30 34 39 40 39 41 25 33 30 28 24 23 23 17 13 14 16 19 21 24 26 30 35 40 42 44 44 44 43 46 49 44 37 27 22 17 11 14 22 27
23 26 29 30 38 44 47 47 38 36 38 36 33 31 29 27 23 17 14 14 15 17 19 22 25 29 32 34 37 39 40 40 40 41 41 40 39 37 35 30 24 20 21
18 20 25 33 39 43 49 49 44 42 46 44 39 38 35 32 29 23 18 15 13 15 15 16 19 23 24 27 30 33 34 35 34 34 33 33 33 36 40 38 37 34 29
23 28 32 35 37 41 47 47 50 53 55 51 47 45 43 39 35 30 23 21 18 15 14 13 14 16 17 20 22 23 23 24 26 25 24 25 27 30 33 34 35 35 32
33 41 47 51 49 49 46 46 51 58 61 61 58 52 49 46 41 35 29 26 23 19 17 14 13 12 13 14 14 14 14 14 15 14 14 16 18 21 24 25 26 26 26
Wind_Direction_500mb
198 197 187 191 193 204 213 236 257 279 298 310 315 316 317 315 314 311 310 306 301 296 293 289 284 279 274 272 268 267 267 265 266 275 273 267 259 252 250 254 240 238 236
185 190 194 201 197 211 232 247 271 298 310 314 318 318 317 316 313 313 310 309 305 302 299 294 287 280 276 272 270 266 265 262 260 261 272 284 274 258 251 245 246 245 248
186 191 199 202 205 223 239 260 290 307 316 319 320 317 315 315 317 317 313 307 300 295 293 291 287 281 276 274 271 267 263 267 261 249 251 264 253 279 263 251 242 242 245
189 192 197 201 214 227 248 273 298 315 323 321 319 320 321 320 319 316 315 310 305 302 300 294 288 281 275 271 271 270 267 262 263 260 242 251 257 273 305 253 248 250 245
182 188 198 209 215 237 253 279 306 325 322 320 322 322 320 320 318 317 314 311 306 301 297 292 286 284 282 276 274 271 266 263 260 256 258 254 255 259 260 269 266 261 246
180 189 198 211 225 242 257 288 312 317 319 322 323 323 322 321 319 319 316 314 312 309 306 299 292 282 281 281 279 273 269 264 261 260 259 254 258 254 256 256 261 261 257
187 196 205 217 225 241 264 294 310 317 322 324 325 324 324 323 322 322 319 317 316 314 311 304 298 291 286 279 278 278 276 270 266 261 258 256 254 256 254 266 262 263 265
195 202 215 223 226 243 264 294 313 319 322 325 325 328 329 327 327 325 322 319 314 314 312 308 300 296 291 288 283 281 276 271 271 271 267 261 253 252 252 257 267 268 264
198 206 212 225 238 242 264 298 313 316 321 325 330 333 335 336 334 333 330 324 317 313 310 302 301 298 295 291 284 277 272 271 265 264 266 267 259 252 253 251 252 269 259
199 210 220 231 237 244 270 298 304 311 320 328 333 337 342 342 340 337 332 325 321 317 312 310 307 305 302 298 291 285 280 273 268 267 267 264 261 260 257 253 253 250 266
198 207 226 237 244 248 272 289 294 306 319 328 335 340 347 347 345 341 337 335 331 326 322 317 310 305 304 300 295 291 288 279 268 265 262 261 258 258 260 259 254 253 253
192 208 234 246 251 253 272 275 285 301 318 328 334 344 353 352 348 347 346 343 339 334 327 324 321 318 313 309 301 296 295 287 273 273 260 254 259 258 262 263 245 253 247
209 230 235 244 251 252 255 262 277 296 312 322 334 350 356 355 355 355 352 350 344 341 338 333 328 324 318 311 310 305 299 295 278 267 260 253 259 260 269 271 246 252 246
243 261 250 247 244 248 243 255 270 285 301 317 335 354 355 358 359 359 357 357 358 353 348 344 340 338 334 328 319 315 308 304 281 269 259 254 253 261 264 260 252 247 251
256 246 241 245 243 233 237 248 261 272 295 307 334 350 355 359 3 3 4 5 11 5 360 357 357 355 350 345 340 325 315 306 289 281 263 254 260 264 261 259 255 254 248
243 239 243 239 232 227 232 241 252 261 282 294 325 344 351 2 5 6 7 11 16 15 13 10 8 5 360 359 351 330 326 316 308 292 282 272 271 259 265 257 247 247 254
239 243 246 240 228 224 229 237 243 252 267 278 308 330 341 356 359 4 9 12 18 19 20 17 13 15 12 7 6 1 338 320 306 299 293 287 278 261 253 260 256 250 249
248 245 240 230 222 220 226 232 237 246 261 266 283 308 320 342 351 359 5 12 18 20 20 21 20 19 20 12 8 7 3 356 338 325 316 296 279 266 258 256 257 259 250
212 221 227 224 221 222 225 232 234 242 255 252 258 284 298 325 346 359 1 4 13 21 20 19 21 22 26 21 16 14 23 26 25 15 9 8 345 280 236 240 243 248 251
208 232 236 226 222 222 227 236 239 246 256 250 252 269 285 305 338 356 2 1 8 15 16 19 25 26 27 31 28 26 30 39 42 43 44 42 32 28 341 250 235 218 191
255 262 255 250 242 231 234 241 243 248 251 248 249 254 271 284 312 345 0 2 5 11 17 22 28 31 34 35 36 37 38 38 44 50 47 37 25 38 98 196 192 187 161
274 273 266 258 246 239 240 244 246 245 246 247 248 249 258 268 286 314 339 351 0 10 15 23 26 29 32 33 35 39 41 41 47 50 49 48 45 54 61 87 120 134 144
281 277 271 263 251 246 247 248 253 240 246 246 243 245 248 257 268 282 306 324 339 354 7 16 25 30 31 33 35 39 41 43 44 51 54 58 62 67 74 77 89 108 124
287 293 282 267 262 255 254 255 251 243 242 247 243 242 246 253 257 264 277 292 313 326 343 3 17 29 32 33 37 38 39 41 47 50 55 59 64 70 74 80 85 87 91
287 288 289 285 280 270 261 257 252 246 242 243 245 243 244 246 251 258 265 275 286 298 314 340 357 9 17 28 29 29 33 37 41 41 51 60 66 75 79 83 86 87 90
288 287 289 286 282 275 271 263 252 246 244 241 241 242 243 245 247 252 254 259 271 281 292 305 319 334 345 358 7 14 15 20 26 14 34 58 66 69 73 75 81 89 92
Wind_Speed_850mb
28 33 32 33 29 25 23 23 21 25 32 41 52 59 62 65 68 69 68 65 62 60 59 59 57 56 57 56 56 58 61 65 60 65 79 87 93 98 98 89 97 117 115
40 38 37 31 27 22 23 22 22 27 37 46 51 57 64 67 69 67 61 55 55 58 59 55 53 54 55 55 54 54 59 60 52 52 53 51 69 94 103 98 96 96 115
50 45 40 33 24 24 28 21 23 31 40 47 52 57 61 64 66 63 60 56 55 55 56 57 54 54 54 57 57 54 51 57 60 52 47 26 25 42 59 85 107 100 103
52 46 42 33 31 33 25 21 25 32 39 46 51 57 63 67 65 65 64 62 60 60 56 55 52 50 52 55 56 55 55 57 63 59 63 66 67 50 24 43 69 86 112
52 46 43 35 34 35 25 22 25 32 38 44 51 56 60 63 66 66 67 66 65 61 57 55 51 54 52 55 54 53 56 53 62 65 59 69 72 69 80 74 69 44 75
46 44 40 41 41 32 24 20 26 33 38 43 49 55 59 63 66 67 68 68 67 64 57 53 50 51 56 58 59 59 57 59 58 62 65 71 58 57 62 72 72 91 62
47 46 45 47 32 30 23 21 27 32 37 43 49 54 56 57 60 64 69 70 70 66 60 54 53 55 55 57 58 59 58 61 65 66 67 72 81 71 76 65 65 69 80
47 46 42 34 37 31 22 23 29 33 37 42 47 50 50 52 55 60 65 66 65 65 59 55 54 55 54 54 55 59 61 62 68 72 73 73 79 81 71 68 68 64 63
48 46 45 47 41 31 24 24 27 31 35 40 44 46 47 50 56 60 63 63 62 61 59 57 56 56 54 51 53 56 61 63 64 75 74 72 77 81 83 96 66 54 65
42 42 44 42 38 32 25 26 27 30 34 38 40 42 45 49 54 59 61 59 56 55 53 52 52 55 54 53 54 57 59 64 65 68 74 77 76 75 70 83 92 88 60
37 35 39 37 35 31 26 26 27 28 30 33 35 38 41 46 51 57 58 55 53 50 49 48 49 50 51 51 54 56 59 62 64 71 71 75 72 76 71 64 77 90 95
28 25 31 35 33 29 27 25 25 24 25 28 30 34 38 43 48 54 58 56 52 49 47 47 48 49 51 50 53 55 56 60 64 62 63 73 63 74 73 70 72 74 67
27 21 29 37 35 30 27 25 24 21 21 24 27 30 35 40 47 53 58 58 52 50 48 48 48 50 49 49 49 53 53 56 57 53 61 65 62 67 69 68 78 52 84
31 33 35 34 31 30 28 27 23 19 18 21 22 26 31 38 44 50 55 58 55 51 46 45 45 45 46 45 46 48 48 51 45 46 54 63 61 63 59 62 52 69 60
43 34 30 32 31 31 31 28 24 19 17 19 18 22 27 33 39 46 53 55 54 52 48 47 45 44 43 43 48 47 44 38 36 38 46 50 51 55 58 52 50 60 56
34 32 30 32 34 34 32 28 26 18 16 17 15 18 22 29 36 42 48 53 53 54 53 52 50 49 46 42 36 35 28 23 24 30 33 41 45 44 42 50 53 50 55
30 32 32 30 32 35 32 28 25 17 18 16 12 14 18 24 30 36 42 47 51 54 57 59 59 55 54 52 45 36 30 28 31 36 39 40 39 41 36 38 35 45 59
34 28 25 26 31 36 35 31 25 16 21 16 11 13 16 18 25 32 37 42 47 53 56 57 59 59 59 57 53 45 34 26 24 26 26 27 30 31 36 39 41 40 44
22 17 17 22 30 34 33 32 26 19 24 18 13 12 16 16 21 27 33 37 40 45 51 53 56 58 57 56 52 45 37 32 28 20 18 18 13 11 20 31 34 33 36
15 16 18 22 29 32 34 34 27 22 25 20 18 14 19 16 17 22 26 31 33 36 39 43 49 53 57 55 53 47 40 38 36 32 28 25 18 12 2 13 26 30 26
10 16 22 25 25 31 34 36 32 28 24 27 22 18 21 18 14 15 21 25 27 28 30 34 38 42 47 49 50 50 47 45 41 40 40 38 31 16 4 10 18 20 28
19 22 25 30 34 39 40 39 41 25 33 30 28 24 23 23 17 13 14 16 19 21 24 26 30 35 40 42 44 44 44 43 46 49 44 37 27 22 17 11 14 22 27
23 26 29 30 38 44 47 47 38 36 38 36 33 31 29 27 23 17 14 14 15 17 19 22 25 29 32 34 37 39 40 40 40 41 41 40 39 37 35 30 24 20 21
18 20 25 33 39 43 49 49 44 42 46 44 39 38 35 32 29 23 18 15 13 15 15 16 19 23 24 27 30 33 34 35 34 34 33 33 33 36 40 38 37 34 29
23 28 32 35 37 41 47 47 50 53 55 51 47 45 43 39 35 30 23 21 18 15 14 13 14 16 17 20 22 23 23 24 26 25 24 25 27 30 33 34 35 35 32
33 41 47 51 49 49 46 46 51 58 61 61 58 52 49 46 41 35 29 26 23 19 17 14 13 12 13 14 14 14 14 14 15 14 14 16 18 21 24 25 26 26 26
Wind_Direction_850mb
198 197 187 191 193 204 213 236 257 279 298 310 315 316 317 315 314 311 310 306 301 296 293 289 284 279 274 272 268 267 267 265 266 275 273 267 259 252 250 254 240 238 236
185 190 194 201 197 211 232 247 271 298 310 314 318 318 317 316 313 313 310 309 305 302 299 294 287 280 276 272 270 266 265 262 260 261 272 284 274 258 251 245 246 245 248
186 191 199 202 205 223 239 260 290 307 316 319 320 317 315 315 317 317 313 307 300 295 293 291 287 281 276 274 271 267 263 267 261 249 251 264 253 279 263 251 242 242 245
189 192 197 201 214 227 248 273 298 315 323 321 319 320 321 320 319 316 315 310 305 302 300 294 288 281 275 271 271 270 267 262 263 260 242 251 257 273 305 253 248 250 245
182 188 198 209 215 237 253 279 306 325 322 320 322 322 320 320 318 317 314 311 306 301 297 292 286 284 282 276 274 271 266 263 260 256 258 254 255 259 260 269 266 261 246
180 189 198 211 225 242 257 288 312 317 319 322 323 323 322 321 319 319 316 314 312 309 306 299 292 282 281 281 279 273 269 264 261 260 259 254 258 254 256 256 261 261 257
187 196 205 217 225 241 264 294 310 317 322 324 325 324 324 323 322 322 319 317 316 314 311 304 298 291 286 279 278 278 276 270 266 261 258 256 254 256 254 266 262 263 265
195 202 215 223 226 243 264 294 313 319 322 325 325 328 329 327 327 325 322 319 314 314 312 308 300 296 291 288 283 281 276 271 271 271 267 261 253 252 252 257 267 268 264
198 206 212 225 238 242 264 298 313 316 321 325 330 333 335 336 334 333 330 324 317 313 310 302 301 298 295 291 284 277 272 271 265 264 266 267 259 252 253 251 252 269 259
199 210 220 231 237 244 270 298 304 311 320 328 333 337 342 342 340 337 332 325 321 317 312 310 307 305 302 298 291 285 280 273 268 267 267 264 261 260 257 253 253 250 266
198 207 226 237 244 248 272 289 294 306 319 328 335 340 347 347 345 341 337 335 331 326 322 317 310 305 304 300 295 291 288 279 268 265 262 261 258 258 260 259 254 253 253
192 208 234 246 251 253 272 275 285 301 318 328 334 344 353 352 348 347 346 343 339 334 327 324 321 318 313 309 301 296 295 287 273 273 260 254 259 258 262 263 245 253 247
209 230 235 244 251 252 255 262 277 296 312 322 334 350 356 355 355 355 352 350 344 341 338 333 328 324 318 311 310 305 299 295 278 267 260 253 259 260 269 271 246 252 246
243 261 250 247 244 248 243 255 270 285 301 317 335 354 355 358 359 359 357 357 358 353 348 344 340 338 334 328 319 315 308 304 281 269 259 254 253 261 264 260 252 247 251
256 246 241 245 243 233 237 248 261 272 295 307 334 350 355 359 3 3 4 5 11 5 360 357 357 355 350 345 340 325 315 306 289 281 263 254 260 264 261 259 255 254 248
243 239 243 239 232 227 232 241 252 261 282 294 325 344 351 2 5 6 7 11 16 15 13 10 8 5 360 359 351 330 326 316 308 292 282 272 271 259 265 257 247 247 254
239 243 246 240 228 224 229 237 243 252 267 278 308 330 341 356 359 4 9 12 18 19 20 17 13 15 12 7 6 1 338 320 306 299 293 287 278 261 253 260 256 250 249
248 245 240 230 222 220 226 232 237 246 261 266 283 308 320 342 351 359 5 12 18 20 20 21 20 19 20 12 8 7 3 356 338 325 316 296 279 266 258 256 257 259 250
212 221 227 224 221 222 225 232 234 242 255 252 258 284 298 325 346 359 1 4 13 21 20 19 21 22 26 21 16 14 23 26 25 15 9 8 345 280 236 240 243 248 251
208 232 236 226 222 222 227 236 239 246 256 250 252 269 285 305 338 356 2 1 8 15 16 19 25 26 27 31 28 26 30 39 42 43 44 42 32 28 341 250 235 218 191
255 262 255 250 242 231 234 241 243 248 251 248 249 254 271 284 312 345 0 2 5 11 17 22 28 31 34 35 36 37 38 38 44 50 47 37 25 38 98 196 192 187 161
274 273 266 258 246 239 240 244 246 245 246 247 248 249 258 268 286 314 339 351 0 10 15 23 26 29 32 33 35 39 41 41 47 50 49 48 45 54 61 87 120 134 144
281 277 271 263 251 246 247 248 253 240 246 246 243 245 248 257 268 282 306 324 339 354 7 16 25 30 31 33 35 39 41 43 44 51 54 58 62 67 74 77 89 108 124
287 293 282 267 262 255 254 255 251 243 242 247 243 242 246 253 257 264 277 292 313 326 343 3 17 29 32 33 37 38 39 41 47 50 55 59 64 70 74 80 85 87 91
287 288 289 285 280 270 261 257 252 246 242 243 245 243 244 246 251 258 265 275 286 298 314 340 357 9 17 28 29 29 33 37 41 41 51 60 66 75 79 83 86 87 90
288 287 289 286 282 275 271 263 252 246 244 241 241 242 243 245 247 252 254 259 271 281 292 305 319 334 345 358 7 14 15 20 26 14 34 58 66 69 73 75 81 89 92